Regional Weather Roundup
Issued by NWS

Home | Current Version | Previous Version | Graphics & Text | Print | Product List | Glossary On
Versions: 1 2 3 4 5 6 7 8 9 10 11 12 13 14 15 16 17 18 19 20 21 22 23 24 25 26 27 28 29 30 31 32 33 34 35 36 37 38 39 40 41 42 43 44 45 46 47 48 49 50
000
ASUS45 KBOU 290507
RWRCO

WEATHER ROUNDUP FOR COLORADO
NATIONAL WEATHER SERVICE DENVER/BOULDER CO
1000 PM MST WED JAN 28 2015

NOTE: "FAIR" INDICATES FEW OR NO CLOUDS BELOW 12000 FEET WITH NO
SIGNIFICANT WEATHER AND/OR OBSTRUCTIONS TO VISIBILITY.

COZ001>005-013-030-031-290600-
...NORTHWEST COLORADO...

CITY           SKY/WX    TMP DP  RH WIND       PRES   REMARKS
CRAIG          CLOUDY    34  30  85 CALM      30.33R
HAYDEN         CLOUDY    36  28  75 CALM      30.32S
MEEKER         MOCLDY    26  21  81 E5        30.33R WCI  20
MOUNT WERNER   NOT AVBL
STEAMBOAT SPGS CLOUDY    34  29  83 SE3       30.32S
WALDEN         CLOUDY    32  27  80 SE6       30.32R WCI  26
$$

COZ006>008-011-290600-
...WEST CENTRAL VALLEYS...

CITY           SKY/WX    TMP DP  RH WIND       PRES   REMARKS
GRAND JUNCTION CLOUDY    38  32  79 CALM      30.27S
MONTROSE       PTCLDY    33  26  75 SE9       30.32R WCI  25
EAGLE          MOCLDY    30  27  86 CALM      30.35R
RIFLE          CLOUDY    36  29  75 E3        30.30R
DELTA          PTCLDY    36  28  74 NE5       30.30R
NUCLA          PTCLDY    34  27  75 E9        30.33S WCI  26
$$

COZ017>023-064>068-290600-
...SOUTHWEST COLORADO...

CITY           SKY/WX    TMP DP  RH WIND       PRES   REMARKS
DURANGO        CLOUDY    33  27  78 CALM      30.29R
CORTEZ         CLEAR     31  25  78 E7        30.29S WCI  24
PAGOSA SPRINGS CLOUDY    32  25  76 CALM      30.32S
TELLURIDE      MOCLDY    31  22  70 SE5       30.34F WCI  26
WOLF CREEK PAS NOT AVBL
$$

COZ009-010-012-014-032>034-037-058>063-290600-
...CENTRAL COLORADO...

CITY           SKY/WX    TMP DP  RH WIND       PRES   REMARKS
ASPEN          MOCLDY    30  22  72 SW5       30.32R WCI  25
BUENA VISTA    PTCLDY    31  19  59 CALM      30.32R
COPPER MTN     CLOUDY    23  18  80 W10       30.37R WCI  12
BERTHOUD PASS  CLOUDY    18  10  73 N14G24    30.37R WCI   4
COTTONWOOD PAS PTCLDY    34  16  47 W3        30.34R
GUNNISON       PTCLDY    19  12  73 CALM      30.37R
KREMMLING      CLOUDY    32  27  80 CALM      30.36R
LEADVILLE      PTCLDY    17  11  77 NE8       30.34R WCI   7
MONARCH PASS   CLEAR     19  16  86 MISG      30.47R
SALIDA         PTCLDY    32  20  62 W9        30.39R WCI  24
SUNLIGHT       PTCLDY    28  27  93 CALM        N/A
WILKERSON PASS CLEAR     25  10  54 N8        30.38R WCI  16
$$

COZ069>075-290600-
...SAN LUIS VALLEY/SANGRE DE CRISTO MOUNTAINS...

CITY           SKY/WX    TMP DP  RH WIND       PRES   REMARKS
ALAMOSA        MOCLDY    25  18  74 SW6       30.31R WCI  18
LA VETA PASS   NOT AVBL
SAGUACHE       PTCLDY    30  21  69 N7        30.33R WCI  23
$$

COZ035-036-038>040-290600-
...NORTHERN COLORADO FRONT RANGE...

CITY           SKY/WX    TMP DP  RH WIND       PRES   REMARKS
DENVER INTL AP PTCLDY    36  30  79 NE7       30.29R
DMNS CITY PARK   N/A     40  32  73 S5        30.32R
AURORA         PTCLDY    33  31  90 SE7       30.30R WCI  27
FRONT RANGE AP NOT AVBL
ERIE MUNI ARPT CLEAR     35  32  88 SW5       30.30R WCI  31
BOULDER MUN AP CLEAR     37  32  81 S7        30.30R
CENTENNIAL     MOCLDY    36  31  82 CALM      30.30R
BROOMFIELD     PTCLDY    37  34  87 S3        30.30R
FORT COLLINS   MOCLDY    39  28  65 N21       30.30R
LONGMONT       MOCLDY    39  32  77 SW5       30.32R
$$

COZ041-046-047-076>085-087-088-290600-
...PIKES PEAK/PALMER DIVIDE AND SOUTHERN FOOTHILLS...

CITY           SKY/WX    TMP DP  RH WIND       PRES   REMARKS
COLO. SPRINGS  PTCLDY    38  30  73 NW10      30.30R
A. F. ACADEMY  CLEAR     36  30  78 N15       30.30R
ELLICOTT       CLEAR    N/A N/A N/A NE17G26   30.25R
FALCON         CLEAR     33  30  88 N12G17    30.29R WCI  24
FORT CARSON    CLEAR     38  29  68 N17       30.27R
LIMON          CLEAR     36  31  82 MISG      30.28R
MONUMENT HILL  CLEAR     32  28  86 NE3       30.29R
TRINIDAD       CLEAR     38  28  67 SW5       30.30R
$$

COZ042>045-048>051-090-091-290600-
...NORTHEAST COLORADO...

CITY           SKY/WX    TMP DP  RH WIND       PRES   REMARKS
GREELEY ARPT   CLOUDY    45  25  45 N26G39    30.23R
AKRON          PTCLDY    40  32  73 N20       30.25R
BURLINGTON     CLEAR     36  32  85 NW9       30.23R
WRAY           CLEAR     37  35  91 W10       30.23R
STERLING       MOCLDY    43  36  75 NW9       30.26R
HOLYOKE        CLEAR     43  34  70 NW16G23   30.22R
FORT MORGAN    PTCLDY    42  29  59 N21       30.26R
$$

COZ086-089-092>099-290600-
...SOUTHEAST COLORADO...

CITY           SKY/WX    TMP DP  RH WIND       PRES   REMARKS
PUEBLO         CLEAR     40  29  64 W3        30.28R
LA JUNTA       PTCLDY    45  33  63 MISG      30.25R
LAMAR          CLEAR     43  33  68 NE7       30.20R
SPRINGFIELD      N/A     38  30  73 W7        30.23R
$$



USA.gov is the U.S. government's official web portal to all federal, state and local government web resources and services.